Location: Harris Grove (historical)
(38.2175°N, 88.7906°W)
Time: 14:13:35
(UTC+00:00)

Daily predictions for brighter satellites

Satellite Brightness Start Highest point End
(mag) Time Altitude Azimuth Time Altitude Azimuth Time Altitude Azimuth
ATLAS 5 CENTAUR R/B 2.4 12:03:12 12° W 12:05:52 24° NW 12:09:18 10° N
CZ-4B R/B 2.6 12:04:13 10° N 12:07:45 60° WNW 12:11:20 10° SSW
Cosmos 1340 Rocket 3.3 12:04:49 10° SW 12:08:30 37° WNW 12:12:14 10° N
Cosmos 158 Rocket 4.1 12:03:35 10° NNW 12:08:47 83° ENE 12:14:05 10° SSE
Envisat 4.1 12:05:04 10° NNW 12:08:48 21° WNW 12:12:32 10° WSW
Cosmos 1666 4.4 12:09:06 10° SSE 12:12:36 37° E 12:16:06 10° NNE
Nadezhda 4 Rocket 4.3 12:06:57 10° SSW 12:12:43 41° WNW 12:18:34 10° N
Alouette 2 Rocket 3.1 12:09:37 10° NNW 12:13:10 73° W 12:17:01 10° S
Cosmos 1500 Rocket 4.1 12:09:20 10° SSW 12:13:28 38° WNW 12:17:38 10° N
NOAA 6 4.3 12:10:13 10° NNE 12:15:21 74° ESE 12:20:27 10° S
Sich 1 2.9 12:12:08 10° S 12:16:24 81° W 12:20:41 10° N
DMSP B5D2-2 4.1 12:11:32 10° S 12:16:41 61° W 12:21:50 10° NNW
Lacrosse 4 Rocket 4.1 12:20:44 10° NNE 12:22:56 13° NE 12:25:08 10° ENE
ATLAS 3B R/B 3.0 12:18:59 10° WSW 12:25:03 40° NW 12:31:25 10° NNE
H-2A R/B 2.0 12:21:10 10° S 12:25:25 73° WSW 12:29:48 10° NNW
Cosmos 1805 Rocket 3.8 12:21:36 10° SSW 12:25:50 47° W 12:30:04 10° N
Meteor 1-27 Rocket 4.3 12:22:21 10° NNW 12:27:31 37° W 12:32:46 10° SSW
BREEZE-M DEB (TANK) 3.6 12:18:09 10° NW 12:28:12 78° SW 12:31:23 10° SE
Lacrosse 5 2.3 12:23:22 10° SSW 12:28:24 68° SE 12:33:29 10° NE
Cosmos 1428 Rocket 4.5 12:23:03 10° SSW 12:29:06 62° W 12:35:10 10° N
Cosmos 1707 Rocket 4.1 12:26:01 10° N 12:30:27 65° E 12:34:52 10° SSE
Cosmos 1092 Rocket 4.2 12:25:38 10° SSW 12:31:41 51° W 12:37:50 10° N
Cosmos 1602 3.7 22:56:48 10° N 23:00:39 68° E 23:04:30 10° SSE
Tiangong 3.8 23:01:11 10° SE 23:01:13 10° SE 23:01:15 10° SE
COSMOS 2455 3.2 22:55:29 10° SW 23:01:27 69° WNW 23:07:30 10° NNE
SL-08 R/B 4.2 22:58:57 10° N 23:03:28 50° WNW 23:07:55 10° SSW
DEBRIS 4.3 23:02:42 10° SE 23:03:36 12° ESE 23:04:43 10° E
Cosmos 2369 3.7 22:57:58 10° NNW 23:03:40 64° ENE 23:09:19 10° SSE
USA 267 3.5 22:58:44 10° NE 23:05:15 71° NW 23:11:43 10° WSW
Cosmos 1937 Rocket 3.6 23:01:50 10° NNW 23:07:12 85° ENE 23:12:29 10° SSE
Cosmos 2082 Rocket 2.4 23:02:15 10° SSW 23:07:57 80° WNW 23:13:38 10° NNE
Cosmos 372 Rocket 4.1 23:02:52 10° N 23:08:01 54° ENE 23:13:08 10° SE
FengYun 1-2 T 4.2 23:02:45 10° SSE 23:08:18 73° ENE 23:13:50 10° N
SL-16 R/B 3.6 23:05:59 10° NNE 23:09:27 16° NE 23:12:55 10° E
H-2A R/B 2.7 23:05:45 10° SE 23:10:11 30° ENE 23:14:32 10° N
ARGOS 4.3 23:08:42 10° ESE 23:12:35 20° ENE 23:16:27 10° NNE
CZ-2C R/B 3.3 23:07:51 10° S 23:12:44 70° WSW 23:17:30 10° NNW
Cosmos 1151 Rocket 3.3 23:09:31 10° SSE 23:13:41 49° E 23:17:53 10° NNE
Cosmos 1500 3.1 23:10:45 10° N 23:14:27 62° E 23:18:07 10° SSE
COSMO-SKYMED 1 3.8 23:11:33 10° NE 23:15:02 23° E 23:18:31 10° SSE
Cosmos 1633 Rocket 3.7 23:12:28 10° NNE 23:16:26 32° ENE 23:20:23 10° SE
X-37B 0.6 23:17:57 10° SW 23:20:46 57° SSE 23:23:02 14° ENE
Cosmos 1939 Rocket 2.9 23:17:27 10° SSE 23:21:34 88° ENE 23:25:39 10° NNW
Centaur D-1A AC-32 4.5 23:17:25 10° WSW 23:22:47 22° SSW 23:25:50 10° SE
CZ-4B DEB 4.2 23:19:01 10° SSE 23:24:26 60° ENE 23:29:50 10° N
CZ-2D R/B 3.6 23:22:00 10° SE 23:25:35 40° ENE 23:29:11 10° N
Cosmos 2278 3.8 23:20:49 10° NNW 23:26:25 55° ENE 23:31:58 10° SE
Cosmos 1092 Rocket 4.5 23:23:07 10° NNW 23:29:24 68° W 23:35:38 10° S
Cosmos 1782 3.8 23:25:57 10° SSW 23:29:48 48° W 23:33:41 10° N
NOAA 6 4.0 23:24:58 10° SSE 23:30:06 90° SW 23:35:16 10° NNW
AQUARIUS 4.1 23:27:14 10° SSE 23:31:43 83° ENE 23:36:13 10° N
Meteor 1-14 Rocket 4.3 23:26:43 10° N 23:32:34 65° E 23:38:29 10° SSE
USA 234 3.6 23:30:01 10° ESE 23:36:09 44° NE 23:42:16 10° NW
CZ-2C R/B 2.8 23:32:45 10° NNE 23:37:44 46° E 23:42:41 10° S
Cosmos 1328 Rocket 3.5 23:36:58 10° S 23:41:22 72° E 23:45:49 10° NNE
MOS 1-B 4.3 23:37:27 10° SSE 23:43:07 63° ENE 23:48:50 10° N
Cosmos 1666 2.5 23:39:35 10° N 23:43:18 76° E 23:47:00 10° S
Cosmos 1666 Rocket 3.5 23:40:54 10° N 23:45:20 88° ENE 23:49:43 10° S
SL-24 R/B - RUBIN 2 4.0 23:41:57 10° NW 23:46:18 62° WSW 23:50:32 10° SSE
Okean O Rocket 2.2 23:42:25 10° SE 23:46:26 34° ENE 23:50:27 10° N
SMAP 3.9 23:44:19 10° S 23:48:51 53° W 23:53:25 10° NNW
Cosmos 1470 Rocket 3.9 23:44:37 10° N 23:48:53 43° E 23:53:09 10° SSE
Cosmos 2279 Rocket 4.1 23:42:51 10° S 23:49:04 81° W 23:55:17 10° N
CZ-4B R/B 3.2 23:46:24 10° SSE 23:51:39 55° ENE 23:56:51 10° N
CZ-4C R/B 3.9 23:54:58 27° ESE 23:54:58 27° ESE 23:57:37 10° SSE
ATLAS 5 CENTAUR R/B 3.5 23:51:33 10° NNW 23:54:47 17° NNE 23:54:52 17° NNE
Lacrosse 5 rocket 2.0 23:51:49 10° NNW 23:55:29 34° NE 23:56:31 30° ENE
